TimeEDT,TemperatureF,Dew PointF,Humidity,Sea Level PressureIn,VisibilityMPH,Wind Direction,Wind SpeedMPH,Gust SpeedMPH,PrecipitationIn,Events,Conditions,WindDirDegrees,DateUTC
12:01 AM,68.0,68.0,100,30.19,10.0,Calm,Calm,-,N/A,Rain,Light Rain,0,2012-10-04 04:01:00
12:10 AM,68.0,68.0,100,30.19,9.0,Calm,Calm,-,N/A,Rain,Light Rain,0,2012-10-04 04:10:00
12:14 AM,68.0,68.0,100,30.19,9.0,Calm,Calm,-,N/A,Rain,Light Rain,0,2012-10-04 04:14:00
12:15 AM,68.0,68.0,100,30.19,8.0,NNW,3.5,-,N/A,Rain,Light Rain,340,2012-10-04 04:15:00
12:20 AM,68.0,68.0,100,30.19,8.0,Calm,Calm,-,N/A,Rain,Light Rain,0,2012-10-04 04:20:00
12:25 AM,68.0,68.0,100,30.19,9.0,NNW,3.5,-,N/A,Rain,Light Rain,340,2012-10-04 04:25:00
12:32 AM,69.8,68.0,94,30.19,9.0,North,3.5,-,N/A,Rain,Light Rain,360,2012-10-04 04:32:00
12:34 AM,68.0,68.0,100,30.19,9.0,North,4.6,-,N/A,Rain,Light Rain,360,2012-10-04 04:34:00
12:50 AM,68.0,68.0,100,30.19,10.0,North,3.5,-,N/A,,Mostly Cloudy,350,2012-10-04 04:50:00
12:51 AM,68.0,68.0,100,30.19,10.0,North,3.5,-,N/A,,Mostly Cloudy,360,2012-10-04 04:51:00
12:53 AM,68.0,68.0,100,30.19,10.0,North,3.5,-,N/A,,Mostly Cloudy,360,2012-10-04 04:53:00
12:55 AM,68.7,68.4,99,30.19,10.0,North,3.5,-,0.02,,Mostly Cloudy,10,2012-10-04 04:55:00
1:35 AM,68.0,68.0,100,30.18,10.0,ENE,3.5,-,N/A,,Mostly Cloudy,60,2012-10-04 05:35:00
1:38 AM,68.0,68.0,100,30.18,10.0,ENE,3.5,-,N/A,Rain,Light Rain,60,2012-10-04 05:38:00
1:44 AM,68.0,68.0,100,30.19,9.0,Calm,Calm,-,N/A,Rain,Light Rain,0,2012-10-04 05:44:00
1:48 AM,68.0,68.0,100,30.18,7.0,ENE,3.5,-,N/A,Rain,Rain,60,2012-10-04 05:48:00
1:53 AM,68.0,68.0,100,30.18,5.0,NE,3.5,-,N/A,Rain,Rain,50,2012-10-04 05:53:00
1:55 AM,68.7,68.4,99,30.18,5.0,NE,4.6,-,0.03,Rain,Rain,50,2012-10-04 05:55:00
2:12 AM,68.0,68.0,100,30.17,5.0,East,6.9,-,N/A,Rain,Rain,80,2012-10-04 06:12:00
2:18 AM,68.0,68.0,100,30.17,6.0,ENE,6.9,-,N/A,Rain,Light Rain,60,2012-10-04 06:18:00
2:21 AM,68.0,68.0,100,30.17,6.0,ENE,5.8,-,N/A,Rain,Light Rain,70,2012-10-04 06:21:00
2:30 AM,68.0,68.0,100,30.16,6.0,ENE,8.1,-,N/A,Rain,Light Rain,70,2012-10-04 06:30:00
2:35 AM,68.0,68.0,100,30.16,6.0,ENE,6.9,-,N/A,Rain,Light Rain,70,2012-10-04 06:35:00
2:50 AM,68.0,68.0,100,30.17,8.0,Calm,Calm,-,N/A,Rain,Light Rain,0,2012-10-04 06:50:00
2:55 AM,68.4,68.0,99,30.18,9.0,Calm,Calm,-,0.12,Rain,Light Rain,0,2012-10-04 06:55:00
3:04 AM,68.0,68.0,100,30.18,10.0,Calm,Calm,-,N/A,,Overcast,0,2012-10-04 07:04:00
3:16 AM,68.0,68.0,100,30.17,10.0,NE,3.5,-,N/A,,Mostly Cloudy,50,2012-10-04 07:16:00
3:20 AM,68.0,68.0,100,30.18,10.0,Calm,Calm,-,N/A,Rain,Light Rain,0,2012-10-04 07:20:00
3:25 AM,68.0,68.0,100,30.18,10.0,Calm,Calm,-,N/A,Rain,Light Rain,0,2012-10-04 07:25:00
3:41 AM,68.0,68.0,100,30.17,8.0,NE,5.8,-,N/A,Rain,Light Rain,40,2012-10-04 07:41:00
3:44 AM,68.0,68.0,100,30.17,7.0,NNE,4.6,-,N/A,Rain,Light Rain,30,2012-10-04 07:44:00
3:54 AM,68.0,68.0,100,30.16,8.0,NE,5.8,-,N/A,Rain,Light Rain,50,2012-10-04 07:54:00
3:55 AM,68.2,68.0,99,30.16,8.0,NE,4.6,-,0.02,Rain,Light Rain,50,2012-10-04 07:55:00
4:05 AM,68.0,68.0,100,30.17,10.0,ENE,3.5,-,N/A,Rain,Light Rain,70,2012-10-04 08:05:00
4:09 AM,68.0,68.0,100,30.16,10.0,Calm,Calm,-,N/A,,Overcast,0,2012-10-04 08:09:00
4:16 AM,68.0,68.0,100,30.16,10.0,NNE,4.6,-,N/A,,Overcast,20,2012-10-04 08:16:00
4:23 AM,68.0,68.0,100,30.15,10.0,NNE,5.8,-,N/A,Rain,Light Rain,30,2012-10-04 08:23:00
4:38 AM,68.0,68.0,100,30.17,10.0,Calm,Calm,-,N/A,,Overcast,0,2012-10-04 08:38:00
4:41 AM,68.0,68.0,100,30.18,10.0,Calm,Calm,-,N/A,,Overcast,0,2012-10-04 08:41:00
4:55 AM,68.0,67.6,99,30.18,10.0,Calm,Calm,-,0.01,,Overcast,0,2012-10-04 08:55:00
5:01 AM,68.0,68.0,100,30.18,10.0,Calm,Calm,-,N/A,,Overcast,0,2012-10-04 09:01:00
5:36 AM,68.0,68.0,100,30.19,10.0,ENE,3.5,-,N/A,,Overcast,70,2012-10-04 09:36:00
5:45 AM,68.0,68.0,100,30.19,10.0,Calm,Calm,-,N/A,,Overcast,0,2012-10-04 09:45:00
5:55 AM,68.2,67.8,99,30.19,10.0,ENE,3.5,-,N/A,,Overcast,60,2012-10-04 09:55:00
6:08 AM,68.0,68.0,100,30.19,8.0,NE,3.5,-,N/A,,Overcast,50,2012-10-04 10:08:00
6:26 AM,68.0,68.0,100,30.20,6.0,North,4.6,-,N/A,,Overcast,360,2012-10-04 10:26:00
6:54 AM,68.0,68.0,100,30.19,4.0,NE,5.8,-,N/A,,Overcast,40,2012-10-04 10:54:00
6:55 AM,68.0,67.6,99,30.19,3.0,NE,5.8,-,N/A,,Overcast,40,2012-10-04 10:55:00
6:58 AM,68.0,68.0,100,30.19,2.5,NE,4.6,-,N/A,,Overcast,40,2012-10-04 10:58:00
7:02 AM,68.0,68.0,100,30.19,2.5,NE,5.8,-,N/A,,Overcast,50,2012-10-04 11:02:00
7:15 AM,68.0,68.0,100,30.20,1.8,NNE,4.6,-,N/A,,Overcast,30,2012-10-04 11:15:00
7:25 AM,68.0,68.0,100,30.20,1.2,NNE,5.8,-,N/A,,Overcast,30,2012-10-04 11:25:00
7:27 AM,68.0,68.0,100,30.20,1.0,NNE,5.8,-,N/A,,Overcast,20,2012-10-04 11:27:00
7:31 AM,68.0,68.0,100,30.20,0.8,NNE,5.8,-,N/A,,Overcast,30,2012-10-04 11:31:00
7:48 AM,68.0,68.0,100,30.21,0.8,NNE,4.6,-,N/A,,Overcast,30,2012-10-04 11:48:00
7:55 AM,68.2,67.8,99,30.21,0.8,NNE,5.8,-,N/A,,Overcast,20,2012-10-04 11:55:00
8:41 AM,68.0,68.0,100,30.22,0.8,NE,3.5,-,N/A,,Mist,50,2012-10-04 12:41:00
8:59 AM,68.7,68.5,99,30.23,0.8,ENE,2.3,-,N/A,,Mist,70,2012-10-04 12:59:00
9:55 AM,69.8,69.8,100,30.23,0.5,ENE,3.5,-,N/A,Fog,Fog,60,2012-10-04 13:55:00
10:38 AM,71.6,71.6,100,30.23,2.0,NNE,4.6,-,N/A,,Overcast,20,2012-10-04 14:38:00
10:52 AM,71.6,71.6,100,30.24,3.0,NNE,4.6,-,N/A,,Overcast,20,2012-10-04 14:52:00
10:55 AM,71.4,71.4,100,30.24,10.0,North,4.6,-,N/A,,Overcast,360,2012-10-04 14:55:00
11:17 AM,71.6,71.6,100,30.23,10.0,NNE,4.6,-,N/A,,Overcast,30,2012-10-04 15:17:00
11:36 AM,73.4,73.4,100,30.23,10.0,NE,4.6,-,N/A,,Overcast,50,2012-10-04 15:36:00
11:55 AM,73.9,72.7,96,30.24,10.0,Calm,Calm,-,N/A,,Overcast,0,2012-10-04 15:55:00
12:41 PM,75.2,71.6,89,30.24,10.0,Calm,Calm,-,N/A,,Overcast,0,2012-10-04 16:41:00
12:55 PM,75.2,71.6,89,30.23,10.0,Calm,Calm,-,N/A,,Overcast,0,2012-10-04 16:55:00
1:11 PM,75.2,71.6,89,30.22,10.0,Calm,Calm,-,N/A,,Overcast,0,2012-10-04 17:11:00
1:27 PM,77.0,71.6,83,30.21,10.0,Calm,Calm,-,N/A,,Overcast,0,2012-10-04 17:27:00
1:55 PM,79.2,71.8,78,30.20,10.0,Calm,Calm,-,N/A,,Overcast,0,2012-10-04 17:55:00
2:17 PM,78.8,73.4,83,30.19,10.0,ESE,5.8,-,N/A,,Overcast,120,2012-10-04 18:17:00
2:55 PM,78.8,72.3,80,30.18,10.0,Calm,Calm,-,N/A,,Overcast,0,2012-10-04 18:55:00
3:55 PM,79.7,72.7,79,30.16,10.0,Variable,5.8,-,N/A,,Mostly Cloudy,0,2012-10-04 19:55:00
4:55 PM,79.9,72.9,79,30.16,10.0,NNE,9.2,-,N/A,,Overcast,30,2012-10-04 20:55:00
5:33 PM,78.8,71.6,78,30.16,10.0,North,8.1,-,N/A,,Overcast,10,2012-10-04 21:33:00
5:43 PM,78.8,71.6,78,30.16,10.0,NNE,8.1,-,N/A,,Overcast,30,2012-10-04 21:43:00
5:55 PM,77.7,71.6,81,30.16,10.0,North,11.5,-,N/A,,Overcast,10,2012-10-04 21:55:00
6:10 PM,77.0,71.6,83,30.16,10.0,North,10.4,-,N/A,,Mostly Cloudy,10,2012-10-04 22:10:00
6:16 PM,77.0,71.6,83,30.16,10.0,NNE,8.1,-,N/A,,Mostly Cloudy,20,2012-10-04 22:16:00
6:19 PM,77.0,71.6,83,30.16,10.0,NNE,8.1,-,N/A,,Mostly Cloudy,20,2012-10-04 22:19:00
6:23 PM,77.0,71.6,83,30.16,10.0,NNE,5.8,-,N/A,,Mostly Cloudy,30,2012-10-04 22:23:00
6:28 PM,75.2,71.6,89,30.17,10.0,NNE,8.1,-,N/A,,Scattered Clouds,20,2012-10-04 22:28:00
6:41 PM,75.2,71.6,89,30.17,10.0,NNE,8.1,-,N/A,,Mostly Cloudy,20,2012-10-04 22:41:00
6:45 PM,75.2,71.6,89,30.16,10.0,NNE,8.1,-,N/A,,Mostly Cloudy,30,2012-10-04 22:45:00
6:55 PM,75.2,71.4,88,30.17,10.0,NNE,8.1,-,N/A,,Scattered Clouds,20,2012-10-04 22:55:00
7:55 PM,73.4,71.2,93,30.18,10.0,NE,3.5,-,N/A,,Partly Cloudy,40,2012-10-04 23:55:00
8:55 PM,72.5,71.2,96,30.20,10.0,Calm,Calm,-,N/A,,Mostly Cloudy,0,2012-10-05 00:55:00
9:55 PM,72.3,71.4,97,30.20,10.0,Calm,Calm,-,N/A,,Mostly Cloudy,0,2012-10-05 01:55:00
10:55 PM,71.4,71.1,99,30.19,10.0,North,3.5,-,N/A,,Partly Cloudy,10,2012-10-05 02:55:00
11:55 PM,70.7,70.3,99,30.18,10.0,North,3.5,-,N/A,,Clear,350,2012-10-05 03:55:00